sat.trackr.live / text

‹ back to catalog

2026-027G

NORAD 67752 · 2026-027G

PAYLOAD ACTIVE UNKNOWN

§ Identity

Operator
Country
PRC
Launch date
2026-02-12
Launch site
SCSLA
Launch vehicle
Mass (kg)
RCS (m²)

External: N2YO · Heavens-Above · Gunter

§ Orbital elements

Epoch: 2026-05-24T22:01:18.581952Z

Period
95.17 min
Inclination
97.5034°
Eccentricity
0.0011478
Mean motion
15.13105080 rev/d
Perigee alt
518.8 km
Apogee alt
534.7 km
Semi-major
6,904.9 km
B*
2.6974e-4
RAAN
272.5920°
Arg perigee
336.1850°
Mean anomaly
23.8848°
Rev number
1,538

§ Raw data

2026-027G1 67752U 26027G   26144.91757618  .00004718  00000+0  26974-3 0  99952 67752  97.5034 272.5920 0011478 336.1850  23.8848 15.13105080 15385

JSON: /api/v1/satellites/67752 · /tle

For live sub-satellite position, see the globe view (requires WebGL).

§ Visibility from observer

Set your observer location to see the next 7 days of passes ≥ 10°. The values pass through the URL so the page stays shareable.

No JS? Fill the form by hand. The geolocation button needs JavaScript.